Location: Unspecified
(0.0000°N, 0.0000°E)
Time: 08:39:45
(UTC+00:00)

Amsat-Oscar-6 - Pass Details

Date: 23 June 2019
Orbit: 1448 x 1454 km, 101.8° (Epoch: 23 July)

Event Time Altitude Azimuth Distance (km) Brightness Sun altitude
Rises 02:25:19 0° 34° (NE) 4,543 ? -48.1°
Reaches altitude 10° 02:28:23 10° 42° (NE) 3,567 ? -47.5°
Enters shadow 02:34:49 36° 91° (E) 2,139 ? -46.2°
